Regional Weather Roundup
Issued by NWS Charleston, WV

Home | Current Version | Previous Version | Text Only | Print | Product List | Glossary Off
Versions: 1 2 3 4 5 6 7 8 9 10 11 12 13 14 15 16 17 18 19 20 21 22 23 24 25 26 27 28 29 30 31 32 33 34 35 36 37 38 39 40 41 42 43 44 45 46 47 48 49

000
ASUS41 KRLX 201510
RWRRLX
West Virginia Regional Weather Roundup
National Weather Service Charleston WV
1000 AM EST MON NOV 20 2017

Note: "fair" indicates few or no clouds below 12,000 feet with no
significant weather and/or obstructions to visibility.

WVZ003-201600-
Northern Panhandle of West Virginia

CITY           SKY/WX    TMP DP  RH WIND       PRES   REMARKS
WHEELING       SUNNY     32  22  66 SW7       30.19S
$$

WVZ009-201600-
Northwest West Virginia

CITY           SKY/WX    TMP DP  RH WIND       PRES   REMARKS
PARKERSBURG    SUNNY     34  24  67 VRB5      30.28R
$$

WVZ006-201600-
Western West Virginia

CITY           SKY/WX    TMP DP  RH WIND       PRES   REMARKS
HUNTINGTON     SUNNY     34  24  67 SW7       30.28R
$$

WVZ015-201600-
West Central West Virginia

CITY           SKY/WX    TMP DP  RH WIND       PRES   REMARKS
CHARLESTON     SUNNY     36  24  62 SW9       30.27R
$$

WVZ022-031-201600-
North Central West Virginia

CITY           SKY/WX    TMP DP  RH WIND       PRES   REMARKS
CLARKSBURG     MOSUNNY   34  24  67 SW12      30.23R
MORGANTOWN     MOSUNNY   32  22  66 SW10      30.22R
$$

WVZ025-035-042-045-201600-
Southern West Virginia

CITY           SKY/WX    TMP DP  RH WIND       PRES   REMARKS
BECKLEY        SUNNY     31  21  66 W7        30.20R
LOGAN            N/A     36  27  69 VRB7      30.25R
BLUEFIELD      SUNNY     29  22  75 W8        30.21R
LEWISBURG      SUNNY     33  20  59 W5        30.21R
$$

WVZ047-201600-
Northern Mountains of West Virginia

CITY           SKY/WX    TMP DP  RH WIND       PRES   REMARKS
ELKINS         SUNNY     32  19  58 SW3       30.18F
$$

WVZ052-201600-
Eastern Panhandle of West Virginia

CITY           SKY/WX    TMP DP  RH WIND       PRES   REMARKS
MARTINSBURG    SUNNY     39  18  42 VRB5G17   30.18R
PETERSBURG     SUNNY     39  17  39 CALM      30.18S
$$




USA.gov is the U.S. government's official web portal to all federal, state and local government web resources and services.